Location: Laverne
(36.7100°N, 99.8930°W)
Time: 19:19:16
(UTC-05:00)

Daily predictions for brighter satellites

Satellite Brightness Start Highest point End
(mag) Time Altitude Azimuth Time Altitude Azimuth Time Altitude Azimuth
SL-16 R/B 2.2 21:10:47 10° S 21:16:22 68° ESE 21:22:00 10° NNE
Cosmos 1666 4.4 21:14:09 10° NNE 21:16:58 19° ENE 21:19:48 10° ESE
Cosmos 1500 3.3 21:14:35 10° N 21:18:29 85° W 21:22:22 10° S
Cosmos 1939 Rocket 4.4 21:18:20 10° ESE 21:21:34 22° ENE 21:24:48 10° NNE
Milstar 3 Cent rocket 3.6 21:14:15 10° W 21:22:39 36° SSW 21:27:40 10° SE
COSMOS 2455 4.0 21:19:55 10° SSE 21:24:14 21° ESE 21:28:34 10° ENE
OAO 3 Copernicus 4.4 21:21:05 10° W 21:26:07 71° S 21:31:09 10° ESE
Resurs 01 Rocket 4.2 21:24:52 10° SW 21:28:11 21° W 21:31:32 10° NW
Lacrosse 5 rocket 3.3 21:26:17 10° WSW 21:29:44 32° NW 21:33:22 10° NNE
Cosmos 1743 2.6 21:27:15 10° N 21:31:06 77° E 21:34:54 10° S
Cosmos 1025 Rocket 3.5 21:26:46 10° SSW 21:31:09 68° W 21:35:31 10° N
Cosmos 2228 3.9 21:27:11 10° NNE 21:31:10 32° ENE 21:35:06 10° SE
ATLAS 3B R/B 4.2 21:29:49 10° SE 21:34:16 17° ESE 21:38:42 10° ENE
Cosmos 2251 Rocket 4.1 21:31:25 10° SSW 21:36:40 63° WNW 21:41:59 10° N
Cosmos 2098 Rocket 3.9 21:33:27 10° NNW 21:36:47 44° W 21:40:53 10° SSW
Meteor 1-23 Rocket 4.2 21:31:31 10° S 21:37:07 71° E 21:42:48 10° NNE
Cosmos 1892 Rocket 3.7 21:35:10 10° S 21:39:35 82° W 21:44:04 10° N
Centaur D AC-28 3.1 21:36:25 10° WSW 21:40:11 23° SSW 21:42:46 12° SE
ERS-1 Rocket 3.0 21:37:47 10° SSE 21:42:46 71° ENE 21:47:46 10° N
USA 186 2.8 21:41:21 10° S 21:44:07 38° W 21:46:44 10° NNW
Cosmos 1603 4.0 21:40:08 10° S 21:45:24 43° ESE 21:50:40 10° NE
Envisat 3.7 21:42:41 12° SE 21:46:55 39° ENE 21:51:37 10° N
SJ-11-01 4.3 21:42:59 10° SSE 21:47:36 70° ENE 21:52:16 10° N
Abrixas rocket 3.0 21:45:32 10° NW 21:48:51 45° NNE 21:51:25 15° E
Cosmos 1110 Rocket 4.2 21:46:01 10° NNW 21:51:18 74° WSW 21:56:31 10° S
USA 234 4.3 21:46:21 10° E 21:52:11 36° NNE 21:58:03 10° NNW
Meteor 2-9 Rocket 4.3 21:47:02 10° N 21:52:43 68° E 21:58:25 10° SSE
Okean 2 3.5 21:48:51 10° S 21:53:02 82° W 21:57:14 10° N
Meteor 2-4 Rocket 4.0 21:50:48 10° SSW 21:56:38 77° W 22:02:35 10° N
Cosmos 2297 4.1 21:57:19 10° NNW 22:02:58 63° WSW 22:08:32 10° S
YAOGAN 6 4.3 22:02:20 17° E 22:03:36 20° ENE 22:06:23 10° NNE
ISS -2.9 22:01:50 10° SSW 22:04:54 39° SE 22:07:58 10° ENE
PSLV R/B 3.3 22:01:53 10° WSW 22:05:25 89° NNW 22:08:59 10° ENE
BREEZE-M DEB (TANK) 2.8 21:59:54 10° SW 22:05:49 76° NW 22:08:12 10° NE
UNK 4.5 22:00:44 10° NNE 22:06:01 49° ESE 22:11:32 10° S
Tsikada Rocket 4.1 22:01:43 10° S 22:08:01 62° E 22:14:19 10° NNE
Cosmos 1513 Rocket 4.5 22:01:46 10° N 22:08:04 79° E 22:13:42 13° S
CZ-2C R/B 2.6 22:06:30 10° SSW 22:08:28 24° W 22:10:28 10° NW
Timation 1 Rocket 4.5 22:03:15 10° NNW 22:09:14 64° ENE 22:13:19 21° SE
Cosmos 1943 4.1 22:07:20 19° SE 22:10:02 27° ESE 22:14:46 10° NE
Cosmos 1461 3.0 22:12:32 10° NNW 22:16:46 60° ENE 22:18:39 29° SE
SPOT 5 2.6 22:15:34 23° SSE 22:18:16 68° ENE 22:22:35 10° N
Cosmos 2058 Rocket 4.2 22:15:28 10° NNW 22:19:35 41° W 22:23:40 10° SSW
MetOp-A 4.3 22:16:41 23° SE 22:19:54 55° ENE 22:25:08 10° N
CZ-4 SHROUD 3.1 22:19:33 34° SSE 22:20:48 84° ENE 22:23:58 10° N
Cosmos 2285 Rocket 4.4 22:14:44 10° NNW 22:20:58 61° WSW 22:26:36 13° S
Cosmos 1602 Rocket 3.7 22:18:10 10° S 22:22:38 78° W 22:27:07 10° N
GRACE-1 3.9 22:23:14 10° N 22:26:06 81° W 22:26:57 41° S
GRACE-2 3.9 22:23:40 10° N 22:26:33 80° W 22:27:23 42° SSW
Cosmos 1825 Rocket 4.3 22:26:46 30° ESE 22:27:47 34° E 22:31:49 10° NNE
H-2A R/B 3.7 22:28:49 15° E 22:30:15 17° ENE 22:33:28 10° NNE
Cosmos 1812 Rocket 3.5 22:31:22 10° N 22:35:46 80° E 22:37:38 34° SSE
SPOT 1/Viking Rocket 3.7 22:36:21 32° SE 22:38:33 57° ENE 22:43:36 10° N
Terra 3.4 22:39:33 18° E 22:40:29 19° ENE 22:43:49 10° NNE
Cosmos 1190 Rocket 4.4 22:40:31 34° SE 22:42:05 44° ESE 22:47:08 10° NNE
Geosat 4.3 22:38:13 10° NE 22:43:02 45° ESE 22:44:24 36° SSE
H-2A R/B 3.9 22:42:37 10° SSW 22:46:07 25° W 22:49:41 10° NW
USA 245 4.3 22:43:14 31° SSE 22:46:15 72° ENE 22:51:38 10° N
CZ-4C R/B 4.2 22:48:46 36° E 22:49:15 37° ENE 22:53:05 10° N
SeaSat 1 2.6 22:47:08 32° S 22:49:21 66° WSW 22:54:17 10° NNW
Cosmos 1634 Rocket 4.1 22:45:11 10° N 22:51:16 59° E 22:53:37 37° SE
Atlas Centaur 2 3.1 22:46:07 10° WSW 22:53:39 53° S 22:58:14 27° ESE
ARGOS 3.2 22:52:05 39° SE 22:53:59 65° ENE 22:59:22 10° N
Cosmos 2369 Rocket 2.7 22:51:13 10° N 22:56:39 45° ENE 22:58:16 36° ESE
CZ-4B R/B 3.8 22:53:41 10° N 22:58:44 66° WNW 23:02:50 16° SSW
NOAA 11 4.1 23:04:33 47° SSE 23:06:10 76° ENE 23:11:35 10° N
Cosmos 489 Rocket 4.5 23:04:43 38° SSE 23:07:05 62° ESE 23:13:21 10° NNE
COSMOS 2455 3.5 23:03:50 10° SW 23:09:41 54° WNW 23:15:35 10° NNE
Cosmos 1953 4.4 23:08:15 10° NNE 23:10:05 17° ENE 23:10:05 17° ENE
Cosmos 1953 Rocket 3.4 23:12:41 73° S 23:13:06 86° E 23:17:33 10° N
Cosmos 2279 Rocket 4.2 23:09:41 10° N 23:15:47 53° E 23:17:08 45° ESE
IGS 5A 4.3 23:20:24 38° NE 23:20:24 38° NE 23:23:49 10° N
Cosmos 2263 4.5 23:15:04 10° NNW 23:20:32 51° ENE 23:21:29 46° E
Meteor 1-22 Rocket 4.1 23:15:31 10° N 23:21:07 80° E 23:22:20 57° SSE
ATLAS 3B R/B 2.9 23:16:24 10° SSW 23:24:07 89° WNW 23:31:45 10° NNE
Cosmos 407 Rocket 3.5 23:29:34 52° SSW 23:30:53 81° WNW 23:36:09 10° NNE
Cosmos 1346 Rocket 3.3 23:31:31 54° WNW 23:31:31 54° WNW 23:35:15 10° N
DELTA 2 DEB (DPAF) 4.3 23:34:01 63° WSW 23:34:09 64° WSW 23:38:38 10° NNW
USA 234 3.3 23:33:09 50° SSE 23:34:51 69° SW 23:41:25 10° NW
Lacrosse 4 Rocket 1.7 23:35:27 60° NNW 23:35:27 60° NNW 23:39:05 10° NNE
Cosmos-2242 3.8 23:31:46 10° N 23:35:14 42° NE 23:35:14 42° NE
Kosmos-1675 3.6 23:36:17 70° NW 23:36:17 70° NW 23:43:24 10° NNE
ISS -0.7 23:38:52 10° W 23:41:26 21° NNW 23:44:01 10° NNE
SL-24 R/B 4.4 23:38:52 10° N 23:43:50 82° W 23:44:13 75° SW
Cosmos 1758 Rocket 4.3 23:47:14 46° W 23:47:28 46° W 23:51:41 10° N
Cosmos 1842 4.3 23:48:55 43° N 23:48:55 43° N 23:51:38 10° N
Cosmos 1954 Rocket 3.9 23:49:59 85° ENE 23:49:59 85° ENE 23:55:15 10° NNE
CARTOSAT-1 4.0 23:51:37 60° NW 23:51:37 60° NW 23:55:19 10° NNW
